Crosby, ND

10:23 AM CST on November 15, 2019 (GMT -0600)
Crosby

Weather History for KD50 - September, 2019

Change the Weather History Date:

Monday, September 9, 2019

  Actual Average (WUND) Record (WUND)
Temperature  
Mean Temperature 52 °F -  
Max Temperature 53 °F - - (-1)
Min Temperature 50 °F - - (-1)
Degree Days  
Heating Degree Days 14    
Growing Degree Days 2 (Base 50)    
Moisture  
Dew Point 52 °F    
Average Humidity 100    
Maximum Humidity 100    
Minimum Humidity 100    
Precipitation  
Precipitation 0.00 in - - ()
Sea Level Pressure  
Sea Level Pressure 29.87 in    
Wind  
Wind Speed 10 mph (East)    
Max Wind Speed 18 mph    
Max Gust Speed 23 mph    
Visibility 6 miles    
Events Rain    
Averages and records for this station are not official NWS values.
T = Trace of Precipitation, MM = Missing Value Source: NWS Daily Summary

Daily Weather History Graph

Daily Weather History Graph

Search for Another Location

Airport or City:

Astronomy

Sep. 09, 2019 Rise Set
Actual Time 7:21 AM CDT 8:19 PM CDT
Civil Twilight 6:48 AM CDT 8:51 PM CDT
Nautical Twilight 6:10 AM CDT 9:29 PM CDT
Astronomical Twilight 5:28 AM CDT 10:10 PM CDT
Moon 6:39 PM CDT (9/9) 2:29 AM CDT (9/9)
Length of Visible Light 14h 02m
Length of Day
12h 58m
Waxing Gibbous, 83% of the Moon is Illuminated
Sep 9
Waxing Gibbous
Sep 13
Full
Sep 21
Last Quarter
Sep 28
New
Oct 5
First Quarter

Hourly Weather History & Observations

Time (CDT) Temp. Dew Point Humidity Pressure Visibility Wind Dir Wind Speed Gust Speed Precip Events Conditions
12:35 AM 50.0 °F 50.0 °F 100% 30.01 in 10.0 mi East 6.9 mph - N/A   Overcast
12:55 AM 50.0 °F 50.0 °F 100% 30.01 in 10.0 mi East 5.8 mph - N/A   Overcast
1:15 AM 50.0 °F 50.0 °F 100% 30.01 in 10.0 mi East 6.9 mph - N/A   Overcast
1:35 AM 50.0 °F 50.0 °F 100% 29.99 in 10.0 mi East 6.9 mph - N/A   Overcast
1:55 AM 50.0 °F 50.0 °F 100% 29.99 in 10.0 mi East 5.8 mph - N/A   Overcast
2:15 AM 51.8 °F 51.8 °F 100% 29.97 in 10.0 mi ENE 6.9 mph - N/A   Overcast
2:35 AM 51.8 °F 51.8 °F 100% 29.96 in 10.0 mi East 8.1 mph - N/A   Overcast
2:55 AM 51.8 °F 51.8 °F 100% 29.96 in 10.0 mi East 9.2 mph - N/A   Overcast
3:15 AM 51.8 °F 51.8 °F 100% 29.95 in 10.0 mi East 10.4 mph - N/A   Overcast
3:55 AM 51.8 °F 51.8 °F 100% 29.95 in 10.0 mi East 10.4 mph - N/A   Overcast
4:15 AM 51.8 °F 51.8 °F 100% 29.95 in 10.0 mi East 9.2 mph - N/A   Overcast
4:35 AM 51.8 °F 51.8 °F 100% 29.95 in 10.0 mi East 9.2 mph - N/A   Overcast
4:55 AM 51.8 °F 51.8 °F 100% 29.94 in 10.0 mi East 9.2 mph - N/A   Overcast
5:15 AM 51.8 °F 51.8 °F 100% 29.94 in 10.0 mi East 9.2 mph - N/A   Overcast
5:35 AM 51.8 °F 51.8 °F 100% 29.94 in 3.0 mi East 9.2 mph - N/A   Overcast
5:55 AM 51.8 °F 51.8 °F 100% 29.93 in 2.0 mi East 10.4 mph - N/A   Overcast
6:15 AM 51.8 °F 51.8 °F 100% 29.92 in 3.0 mi East 10.4 mph - N/A   Overcast
6:35 AM 51.8 °F 51.8 °F 100% 29.92 in 6.0 mi East 9.2 mph - N/A   Overcast
6:55 AM 51.8 °F 51.8 °F 100% 29.91 in 10.0 mi East 11.5 mph - N/A   Overcast
7:15 AM 51.8 °F 51.8 °F 100% 29.91 in 7.0 mi East 12.7 mph - N/A   Overcast
7:35 AM 51.8 °F 51.8 °F 100% 29.91 in 10.0 mi East 13.8 mph - N/A   Overcast
7:55 AM 51.8 °F 51.8 °F 100% 29.91 in 9.0 mi East 13.8 mph - N/A   Overcast
8:15 AM 51.8 °F 51.8 °F 100% 29.90 in 9.0 mi East 15.0 mph - N/A   Overcast
8:35 AM 51.8 °F 51.8 °F 100% 29.90 in 10.0 mi East 15.0 mph - N/A   Overcast
8:55 AM 51.8 °F 51.8 °F 100% 29.89 in 10.0 mi East 12.7 mph 19.6 mph N/A   Overcast
9:15 AM 51.8 °F 51.8 °F 100% 29.90 in 10.0 mi East 15.0 mph 20.7 mph N/A   Overcast
9:35 AM 51.8 °F 51.8 °F 100% 29.89 in 5.0 mi East 17.3 mph - N/A   Overcast
9:55 AM 51.8 °F 51.8 °F 100% 29.89 in 3.0 mi East 15.0 mph 23.0 mph N/A   Overcast
10:15 AM 51.8 °F 51.8 °F 100% 29.88 in 4.0 mi East 13.8 mph 20.7 mph N/A   Overcast
10:35 AM 51.8 °F 51.8 °F 100% 29.87 in 7.0 mi East 16.1 mph - N/A   Overcast
10:55 AM 51.8 °F 51.8 °F 100% 29.86 in 8.0 mi East 17.3 mph 23.0 mph N/A   Overcast
11:15 AM 51.8 °F 51.8 °F 100% 29.86 in 5.0 mi East 12.7 mph 20.7 mph N/A   Light Drizzle
11:35 AM 51.8 °F 51.8 °F 100% 29.86 in 4.0 mi East 13.8 mph - N/A   Light Drizzle
11:55 AM 51.8 °F 51.8 °F 100% 29.86 in 6.0 mi East 16.1 mph - N/A   Light Drizzle
12:15 PM 51.8 °F 51.8 °F 100% 29.86 in 5.0 mi East 10.4 mph 19.6 mph N/A   Overcast
12:35 PM 53.6 °F 53.6 °F 100% 29.85 in 5.0 mi East 13.8 mph - N/A   Overcast
12:55 PM 53.6 °F 53.6 °F 100% 29.84 in 7.0 mi East 16.1 mph - N/A   Overcast
1:15 PM 53.6 °F 53.6 °F 100% 29.84 in 8.0 mi East 16.1 mph - N/A   Overcast
1:35 PM 53.6 °F 53.6 °F 100% 29.83 in 6.0 mi ENE 13.8 mph 20.7 mph N/A   Overcast
1:55 PM 53.6 °F 53.6 °F 100% 29.83 in 4.0 mi East 13.8 mph 19.6 mph N/A   Light Drizzle
2:15 PM 53.6 °F 53.6 °F 100% 29.83 in 6.0 mi East 16.1 mph - N/A   Light Drizzle
2:35 PM 53.6 °F 53.6 °F 100% 29.82 in 2.5 mi East 13.8 mph - N/A Rain Light Rain
2:55 PM 53.6 °F 53.6 °F 100% 29.82 in 3.0 mi East 13.8 mph - N/A   Light Drizzle
3:15 PM 53.6 °F 53.6 °F 100% 29.81 in 2.5 mi East 13.8 mph 23.0 mph N/A   Overcast
3:35 PM 53.6 °F 53.6 °F 100% 29.81 in 1.2 mi East 13.8 mph - N/A   Light Drizzle
3:55 PM 53.6 °F 53.6 °F 100% 29.81 in 2.0 mi East 18.4 mph - N/A   Light Drizzle
4:15 PM 53.6 °F 53.6 °F 100% 29.81 in 2.0 mi East 13.8 mph 20.7 mph N/A   Overcast
4:35 PM 53.6 °F 53.6 °F 100% 29.80 in 1.8 mi ENE 13.8 mph - N/A Rain Light Rain
4:55 PM 53.6 °F 53.6 °F 100% 29.79 in 2.5 mi East 17.3 mph - N/A   Mostly Cloudy
5:15 PM 53.6 °F 53.6 °F 100% 29.80 in 3.0 mi East 12.7 mph - N/A   Mostly Cloudy
5:35 PM 53.6 °F 53.6 °F 100% 29.80 in 2.5 mi East 15.0 mph - N/A   Overcast
5:55 PM 53.6 °F 53.6 °F 100% 29.80 in 0.8 mi East 13.8 mph - N/A   Overcast
6:15 PM 53.6 °F 53.6 °F 100% 29.80 in 0.8 mi East 11.5 mph 19.6 mph N/A   Light Drizzle
6:35 PM 53.6 °F 53.6 °F 100% 29.81 in 1.0 mi East 11.5 mph 19.6 mph N/A   Light Drizzle
7:15 PM 53.6 °F 53.6 °F 100% 29.82 in 0.5 mi East 10.4 mph 16.1 mph N/A   Overcast
7:35 PM 53.6 °F 53.6 °F 100% 29.82 in 0.5 mi East 10.4 mph - N/A   Light Drizzle
7:55 PM 53.6 °F 53.6 °F 100% 29.81 in 0.8 mi East 12.7 mph - N/A Rain Light Rain
8:15 PM 51.8 °F 51.8 °F 100% 29.82 in 1.5 mi ENE 9.2 mph - N/A   Overcast
8:35 PM 51.8 °F 51.8 °F 100% 29.82 in 4.0 mi ENE 9.2 mph - N/A   Overcast
8:55 PM 51.8 °F 51.8 °F 100% 29.82 in 7.0 mi ENE 8.1 mph - N/A   Overcast
9:15 PM 51.8 °F 51.8 °F 100% 29.82 in 9.0 mi ENE 9.2 mph - N/A   Overcast
9:35 PM 51.8 °F 51.8 °F 100% 29.83 in 2.0 mi ENE 8.1 mph - N/A   Overcast
9:55 PM 51.8 °F 51.8 °F 100% 29.83 in 2.0 mi ENE 8.1 mph - N/A   Overcast
10:15 PM 51.8 °F 51.8 °F 100% 29.83 in 2.0 mi ENE 6.9 mph - N/A   Overcast
10:35 PM 51.8 °F 51.8 °F 100% 29.83 in 1.8 mi ENE 6.9 mph - N/A   Overcast
10:55 PM 53.6 °F 53.6 °F 100% 29.83 in 2.0 mi ENE 5.8 mph - N/A   Overcast
11:15 PM 53.6 °F 53.6 °F 100% 29.83 in 2.0 mi ENE 5.8 mph - N/A   Overcast
11:35 PM 53.6 °F 53.6 °F 100% 29.83 in 2.5 mi ENE 5.8 mph - N/A   Overcast
11:55 PM 53.6 °F 53.6 °F 100% 29.83 in 4.0 mi East 5.8 mph - N/A   Overcast